THY99 LTFJ-LTBS

Flight info

Callsign THY99
Flight time 0h 45m
Altitude 34000
Route ROXUK1K/24R ROXUK UT409 NUMTI UT241 DEN/N0419F330 UW87 LAVTA/N0386F270 W87 ATSAL
Aircraft A319/M-SDE3FGHIRWY/LB1

Departure

Time 2026-05-05 14:48
Airport Istanbul Sabiha Gökçen International Airport (LTFJ)

Arrival

Time 2026-05-05 15:34
Airport Dalaman International Airport (LTBS)
Time Latitude Longitude Altitude Speed Heading
2026-05-05 14:32 40.90577 29.31540 319 ft 0 kts 334°
2026-05-05 14:40 40.90561 29.31551 319 ft 4 kts 334°
2026-05-05 14:40 40.90536 29.31565 320 ft 4 kts 342°
2026-05-05 14:40 40.90511 29.31571 320 ft 4 kts 12°
2026-05-05 14:40 40.90494 29.31558 319 ft 1 kts 64°
2026-05-05 14:43 40.90496 29.31565 319 ft 3 kts 64°
2026-05-05 14:43 40.90510 29.31601 321 ft 6 kts 64°
2026-05-05 14:44 40.90534 29.31666 321 ft 10 kts 64°
2026-05-05 14:44 40.90568 29.31758 319 ft 13 kts 64°
2026-05-05 14:44 40.90612 29.31875 320 ft 15 kts 64°
2026-05-05 14:44 40.90585 29.31951 321 ft 12 kts 163°
2026-05-05 14:45 40.90500 29.31993 321 ft 14 kts 143°
2026-05-05 14:45 40.90501 29.32122 320 ft 16 kts 59°
2026-05-05 14:45 40.90560 29.32261 320 ft 19 kts 65°
2026-05-05 14:45 40.90570 29.32422 319 ft 19 kts 130°
2026-05-05 14:46 40.90533 29.32453 320 ft 1 kts 154°
2026-05-05 14:46 40.90531 29.32455 320 ft 0 kts 154°
2026-05-05 14:46 40.90530 29.32455 320 ft 1 kts 154°
2026-05-05 14:46 40.90511 29.32467 320 ft 3 kts 154°
2026-05-05 14:47 40.90481 29.32480 320 ft 8 kts 169°
2026-05-05 14:47 40.90407 29.32418 319 ft 18 kts 240°
2026-05-05 14:47 40.90300 29.32134 319 ft 65 kts 244°
2026-05-05 14:47 40.90005 29.31331 319 ft 127 kts 244°
2026-05-05 14:48 40.89549 29.30072 402 ft 168 kts 244°
2026-05-05 14:48 40.89040 29.28670 1012 ft 171 kts 244°
2026-05-05 14:48 40.88520 29.27252 1736 ft 171 kts 244°
2026-05-05 14:48 40.87991 29.25834 2365 ft 177 kts 243°
2026-05-05 14:49 40.87083 29.24606 2680 ft 205 kts 206°
2026-05-05 14:49 40.85603 29.24458 3101 ft 231 kts 166°
2026-05-05 14:49 40.83986 29.25121 3668 ft 256 kts 160°
2026-05-05 14:49 40.82262 29.25994 4410 ft 272 kts 158°
2026-05-05 14:50 40.80480 29.26942 5362 ft 280 kts 158°
2026-05-05 14:50 40.78650 29.27910 6373 ft 286 kts 158°
2026-05-05 14:50 40.76783 29.28877 7309 ft 291 kts 158°
2026-05-05 14:50 40.74874 29.29845 8243 ft 296 kts 158°
2026-05-05 14:51 40.72928 29.30824 9168 ft 302 kts 158°
2026-05-05 14:51 40.70950 29.31817 10065 ft 308 kts 158°
2026-05-05 14:51 40.68870 29.32853 10436 ft 332 kts 159°
2026-05-05 14:51 40.66630 29.33963 10735 ft 355 kts 159°
2026-05-05 14:52 40.64279 29.35125 11348 ft 365 kts 159°
2026-05-05 14:52 40.61884 29.36305 12098 ft 370 kts 159°
2026-05-05 14:52 40.59464 29.37495 12875 ft 373 kts 159°
2026-05-05 14:52 40.57015 29.38700 13651 ft 377 kts 159°
2026-05-05 14:53 40.54545 29.39914 14354 ft 381 kts 159°
2026-05-05 14:53 40.52049 29.41142 15002 ft 384 kts 159°
2026-05-05 14:53 40.49529 29.42381 15666 ft 388 kts 159°
2026-05-05 14:53 40.47022 29.43614 16329 ft 391 kts 159°
2026-05-05 14:54 40.44465 29.44871 17011 ft 394 kts 160°
2026-05-05 14:54 40.41887 29.46135 17684 ft 397 kts 160°
2026-05-05 14:54 40.39288 29.47410 18343 ft 401 kts 160°
2026-05-05 14:54 40.36665 29.48698 18953 ft 404 kts 160°
2026-05-05 14:55 40.34016 29.49998 19556 ft 407 kts 160°
2026-05-05 14:55 40.31354 29.51304 20155 ft 410 kts 159°
2026-05-05 14:55 40.28664 29.52619 20752 ft 413 kts 159°
2026-05-05 14:55 40.25960 29.53938 21337 ft 416 kts 159°
2026-05-05 14:56 40.23235 29.55264 21890 ft 419 kts 160°
2026-05-05 14:56 40.20487 29.56576 22414 ft 422 kts 162°
2026-05-05 14:56 40.17589 29.57234 22927 ft 425 kts 179°
2026-05-05 14:56 40.14657 29.56783 23453 ft 426 kts 196°
2026-05-05 14:57 40.11908 29.55325 23916 ft 428 kts 206°
2026-05-05 14:57 40.09218 29.53629 24382 ft 431 kts 207°
2026-05-05 14:57 40.06510 29.51904 24800 ft 433 kts 207°
2026-05-05 14:57 40.03798 29.50171 25219 ft 436 kts 207°
2026-05-05 14:58 40.01099 29.48453 25629 ft 438 kts 207°
2026-05-05 14:58 39.98313 29.46690 26070 ft 441 kts 207°
2026-05-05 14:58 39.95540 29.44943 26494 ft 444 kts 207°
2026-05-05 14:58 39.92790 29.43220 26900 ft 446 kts 207°
2026-05-05 14:59 39.89938 29.41438 27307 ft 449 kts 207°
2026-05-05 14:59 39.87153 29.39700 27698 ft 451 kts 207°
2026-05-05 14:59 39.84310 29.37921 28084 ft 454 kts 207°
2026-05-05 14:59 39.81455 29.36134 28468 ft 457 kts 207°
2026-05-05 15:00 39.78585 29.34339 28834 ft 459 kts 207°
2026-05-05 15:00 39.76673 29.33144 29071 ft 461 kts 207°
2026-05-05 15:00 39.72791 29.30720 29542 ft 464 kts 208°
2026-05-05 15:00 39.69871 29.28896 29899 ft 466 kts 208°
2026-05-05 15:01 39.66943 29.27065 30226 ft 469 kts 208°
2026-05-05 15:01 39.63990 29.25224 30507 ft 471 kts 208°
2026-05-05 15:01 39.61030 29.23388 30853 ft 472 kts 208°
2026-05-05 15:01 39.58066 29.21550 31211 ft 472 kts 208°
2026-05-05 15:02 39.55101 29.19709 31604 ft 472 kts 208°
2026-05-05 15:02 39.52145 29.17874 32008 ft 472 kts 209°
2026-05-05 15:02 39.49185 29.16040 32403 ft 471 kts 209°
2026-05-05 15:02 39.46223 29.14209 32806 ft 471 kts 209°
2026-05-05 15:03 39.43306 29.12407 33229 ft 470 kts 209°
2026-05-05 15:03 39.40311 29.10557 33668 ft 470 kts 209°
2026-05-05 15:03 39.37355 29.08736 33996 ft 471 kts 208°
2026-05-05 15:03 39.34289 29.07383 34064 ft 475 kts 194°
2026-05-05 15:04 39.27758 29.06021 34068 ft 475 kts 192°
2026-05-05 15:04 39.21228 29.04753 34068 ft 475 kts 192°
2026-05-05 15:05 39.11416 29.02847 34065 ft 476 kts 192°
2026-05-05 15:06 39.04873 29.01551 34062 ft 476 kts 192°
2026-05-05 15:06 38.98330 29.00272 34061 ft 476 kts 192°
2026-05-05 15:07 38.91782 28.98993 34058 ft 476 kts 192°
2026-05-05 15:07 38.85238 28.97720 34056 ft 475 kts 192°
2026-05-05 15:08 38.78703 28.96454 34045 ft 475 kts 192°
2026-05-05 15:08 38.72169 28.95190 34039 ft 475 kts 192°
2026-05-05 15:09 38.65640 28.93926 34040 ft 474 kts 192°
2026-05-05 15:09 38.59113 28.92657 34034 ft 474 kts 192°
2026-05-05 15:10 38.52588 28.91385 34043 ft 474 kts 192°
2026-05-05 15:10 38.46056 28.90131 34046 ft 474 kts 192°
2026-05-05 15:11 38.39570 28.88890 34038 ft 476 kts 192°
2026-05-05 15:11 38.32924 28.87608 34057 ft 489 kts 192°
2026-05-05 15:12 38.26166 28.86309 34056 ft 492 kts 192°
2026-05-05 15:12 38.19395 28.85022 34054 ft 492 kts 192°
2026-05-05 15:13 38.12620 28.83732 34054 ft 493 kts 192°
2026-05-05 15:13 38.05853 28.82445 34049 ft 486 kts 192°
2026-05-05 15:14 37.99215 28.81186 33341 ft 482 kts 192°
2026-05-05 15:14 37.95892 28.80551 32545 ft 483 kts 192°
2026-05-05 15:14 37.92568 28.79920 31773 ft 483 kts 192°
2026-05-05 15:14 37.89252 28.79292 31020 ft 482 kts 192°
2026-05-05 15:15 37.85943 28.78666 30292 ft 479 kts 192°
2026-05-05 15:15 37.82646 28.78046 29442 ft 477 kts 192°
2026-05-05 15:15 37.79369 28.77428 28612 ft 475 kts 192°
2026-05-05 15:15 37.76108 28.76810 27806 ft 472 kts 192°
2026-05-05 15:16 37.72873 28.76199 27027 ft 468 kts 192°
2026-05-05 15:16 37.69666 28.75596 26256 ft 464 kts 192°
2026-05-05 15:16 37.66494 28.75001 25514 ft 459 kts 192°
2026-05-05 15:16 37.63345 28.74407 24780 ft 454 kts 192°
2026-05-05 15:17 37.60235 28.73823 24072 ft 450 kts 192°
2026-05-05 15:17 37.57155 28.73245 23336 ft 446 kts 192°
2026-05-05 15:17 37.54102 28.72672 22528 ft 441 kts 192°
2026-05-05 15:17 37.51080 28.72112 21735 ft 438 kts 191°
2026-05-05 15:18 37.48040 28.71959 20957 ft 437 kts 181°
2026-05-05 15:18 37.45015 28.72060 20205 ft 433 kts 181°
2026-05-05 15:18 37.42013 28.72158 19452 ft 431 kts 181°
2026-05-05 15:18 37.39023 28.72255 18738 ft 428 kts 181°
2026-05-05 15:19 37.36090 28.72347 18005 ft 426 kts 181°
2026-05-05 15:19 37.33088 28.72443 17199 ft 424 kts 181°
2026-05-05 15:19 37.30144 28.72539 16416 ft 423 kts 181°
2026-05-05 15:19 37.27214 28.72554 15662 ft 420 kts 182°
2026-05-05 15:20 37.24349 28.72809 14927 ft 420 kts 169°
2026-05-05 15:20 37.21603 28.74139 14188 ft 419 kts 150°
2026-05-05 15:20 37.19395 28.76408 13450 ft 416 kts 131°
2026-05-05 15:20 37.17560 28.79182 12659 ft 411 kts 126°
2026-05-05 15:21 37.16209 28.82285 12040 ft 401 kts 108°
2026-05-05 15:21 37.15627 28.85576 11984 ft 374 kts 92°
2026-05-05 15:21 37.15676 28.88699 11994 ft 341 kts 82°
2026-05-05 15:21 37.15758 28.91569 12002 ft 323 kts 91°
2026-05-05 15:22 37.15341 28.94284 11853 ft 315 kts 107°
2026-05-05 15:22 37.14424 28.96754 11554 ft 312 kts 122°
2026-05-05 15:22 37.13061 28.98828 11321 ft 305 kts 137°
2026-05-05 15:22 37.11519 29.00543 11167 ft 288 kts 138°
2026-05-05 15:23 37.10046 29.02193 10826 ft 282 kts 137°
2026-05-05 15:23 37.08462 29.03601 10567 ft 279 kts 156°
2026-05-05 15:23 37.06601 29.04189 10285 ft 276 kts 179°
2026-05-05 15:23 37.04723 29.03853 9990 ft 272 kts 202°
2026-05-05 15:24 37.03130 29.02706 9845 ft 257 kts 224°
2026-05-05 15:24 37.01887 29.01205 9671 ft 242 kts 227°
2026-05-05 15:24 37.00701 28.99758 9376 ft 233 kts 226°
2026-05-05 15:24 36.99566 28.98383 9241 ft 223 kts 226°
2026-05-05 15:25 36.98475 28.97059 9123 ft 215 kts 227°
2026-05-05 15:25 36.97413 28.95770 8898 ft 211 kts 227°
2026-05-05 15:25 36.96360 28.94487 8560 ft 212 kts 226°
2026-05-05 15:25 36.95323 28.93228 8389 ft 203 kts 226°
2026-05-05 15:26 36.94311 28.92000 8096 ft 203 kts 228°
2026-05-05 15:26 36.93311 28.90783 7807 ft 202 kts 226°
2026-05-05 15:26 36.92336 28.89601 7686 ft 193 kts 226°
2026-05-05 15:26 36.91373 28.88431 7390 ft 192 kts 228°
2026-05-05 15:27 36.90484 28.87192 7105 ft 191 kts 237°
2026-05-05 15:27 36.89728 28.85836 6842 ft 190 kts 240°
2026-05-05 15:27 36.89064 28.84423 6569 ft 187 kts 244°
2026-05-05 15:27 36.88501 28.82973 6299 ft 185 kts 249°
2026-05-05 15:28 36.87972 28.81500 6015 ft 186 kts 252°
2026-05-05 15:28 36.87443 28.80019 5740 ft 186 kts 249°
2026-05-05 15:28 36.86944 28.78522 5456 ft 187 kts 251°
2026-05-05 15:28 36.86512 28.77015 5163 ft 181 kts 258°
2026-05-05 15:29 36.86127 28.75530 4894 ft 180 kts 257°
2026-05-05 15:29 36.85753 28.74600 4703 ft 186 kts 236°
2026-05-05 15:29 36.84627 28.73766 4429 ft 196 kts 191°
2026-05-05 15:29 36.83307 28.73985 4152 ft 192 kts 152°
2026-05-05 15:30 36.82261 28.75582 3789 ft 176 kts 102°
2026-05-05 15:30 36.82096 28.76560 3604 ft 173 kts 92°
2026-05-05 15:30 36.81989 28.78058 3330 ft 174 kts 89°
2026-05-05 15:30 36.81910 28.79567 3068 ft 173 kts 86°
2026-05-05 15:31 36.81781 28.81013 2902 ft 166 kts 99°
2026-05-05 15:31 36.81099 28.82110 2686 ft 160 kts 152°
2026-05-05 15:31 36.80041 28.82269 2514 ft 152 kts 190°
2026-05-05 15:31 36.79038 28.81958 2270 ft 145 kts 197°
2026-05-05 15:32 36.78087 28.81592 1985 ft 144 kts 199°
2026-05-05 15:32 36.77076 28.81289 1616 ft 151 kts 197°
2026-05-05 15:32 36.76062 28.80929 1271 ft 154 kts 200°
2026-05-05 15:32 36.75019 28.80545 854 ft 158 kts 200°
2026-05-05 15:33 36.73968 28.80165 486 ft 155 kts 198°
2026-05-05 15:33 36.72951 28.79821 173 ft 149 kts 197°
2026-05-05 15:33 36.72003 28.79486 18 ft 130 kts 198°
2026-05-05 15:33 36.71210 28.79213 13 ft 103 kts 195°
2026-05-05 15:34 36.70741 28.79046 13 ft 32 kts 216°
2026-05-05 15:34 36.70590 28.78889 14 ft 21 kts 231°
2026-05-05 15:34 36.70676 28.78820 13 ft 21 kts 19°
2026-05-05 15:34 36.70826 28.78872 13 ft 24 kts 15°
2026-05-05 15:35 36.70992 28.78928 13 ft 26 kts 15°
2026-05-05 15:35 36.71176 28.78991 13 ft 29 kts 16°
2026-05-05 15:35 36.71378 28.79061 13 ft 29 kts 15°
2026-05-05 15:35 36.71578 28.79127 13 ft 31 kts 14°
2026-05-05 15:36 36.71775 28.79193 12 ft 24 kts 15°
2026-05-05 15:36 36.71880 28.79143 12 ft 19 kts 291°
2026-05-05 15:36 36.71946 28.79032 12 ft 20 kts 359°
2026-05-05 15:36 36.72062 28.79048 13 ft 13 kts 312°
2026-05-05 15:37 36.72077 28.78991 12 ft 2 kts 286°
2026-05-05 15:37 36.72078 28.78984 12 ft 0 kts 285°